This is the latest recevied weather packets stored in our database for station/object DK8RG-15. If no packets are shown the sender has not sent any weather packets the latest 10 day(s).
| Time | Temp. | Humidity | Pressure | Rain* | Wind** | Luminosity | Snow |
|---|---|---|---|---|---|---|---|
| 1778109619 | 12.22° C | 84% | 1004.7 hPa | 1.02 mm | - | - | - |
| 1778109019 | 12.22° C | 82% | 1004.7 hPa | 0 mm | - | - | - |
| 1778108422 | 12.22° C | 81% | 1004.6 hPa | 0 mm | - | - | - |
| 1778107820 | 12.22° C | 81% | 1003.6 hPa | 0 mm | - | - | - |
| 1778107221 | 12.22° C | 80% | 1003.7 hPa | 0 mm | - | - | - |
| 1778106621 | 12.22° C | 80% | 1003.6 hPa | 0 mm | - | - | - |
| 1778104837 | 12.22° C | 79% | 1003.6 hPa | 0 mm | - | - | - |
| 1778104217 | 12.22° C | 79% | 1003.5 hPa | 0 mm | - | - | - |
| 1778103617 | 12.22° C | 79% | 1003.5 hPa | 0 mm | - | - | - |
| 1778103018 | 12.22° C | 79% | 1003.4 hPa | 0 mm | - | - | - |
| 1778102417 | 12.22° C | 78% | 1003.4 hPa | 0 mm | - | - | - |
| 1778101817 | 12.22° C | 78% | 1003.4 hPa | 0 mm | - | - | - |
| 1778101217 | 12.22° C | 76% | 1003.4 hPa | 0 mm | - | - | - |
| 1778100618 | 12.22° C | 75% | 1003.4 hPa | 0 mm | - | - | - |
| 1778100017 | 12.78° C | 74% | 1003.4 hPa | 0 mm | - | - | - |
| 1778099417 | 12.78° C | 74% | 1003.5 hPa | 0 mm | - | - | - |
| 1778098816 | 12.78° C | 74% | 1003.5 hPa | 0 mm | - | - | - |
| 1778098217 | 12.78° C | 76% | 1003.5 hPa | 0 mm | - | - | - |
| 1778097617 | 13.33° C | 78% | 1003.6 hPa | 0 mm | - | - | - |
| 1778097038 | 13.89° C | 79% | 1003.7 hPa | 0 mm | - | - | - |
| 1778096417 | 14.44° C | 76% | 1002.7 hPa | 0 mm | - | - | - |
| 1778095817 | 15° C | 72% | 1002.7 hPa | 0 mm | - | - | - |
| 1778095217 | 15° C | 69% | 1002.7 hPa | 0 mm | - | - | - |
| 1778094617 | 15° C | 67% | 1002.6 hPa | 0 mm | - | - | - |
| 1778094017 | 16.11° C | 65% | 1002.7 hPa | 0 mm | - | - | - |
* Rain latest hour (hover to see other rain measurements)
** Current wind speed in m/s (hover to see current wind gust speed)